Flag for U.S.A. Weather past 2 weeks in Vancouver, Washington, U.S.A.

Now
68 °F

Sunny.


Feels Like: 68 °F
Forecast: 55 / 85 °F
Wind: No wind

Location: Vancouver - Pearson Airpark

Current Time: Jul 28, 2015 at 11:13:07 AM

Latest Report: Jul 28, 2015 at 10:53 AM


Visibility: 10 mi

Pressure: 30.22 "Hg

Humidity: 57%

Dew point: 52 °F

Location of VancouverLocation

Historic Weather in Vancouver — Graph

°F

Vancouver temperature yesterday

Maximum temperature yesterday: 76 °F (at 3:53 PM)
Minimum temperature yesterday: 52 °F (at 5:53 AM)
Average temperature yesterday: 65 °F

Past Weeks' High & Low Weather Summary

 TemperatureHumidityPressure
High96 °F (Jul 18, 4:53 PM)93% (Jul 25, 9:53 AM)30.24 "Hg (Jul 25, 9:53 AM)
Low52 °F (Jul 27, 5:53 AM)14% (Jul 18, 2:53 PM)29.84 "Hg (Jul 18, 6:53 PM)
Average69 °F56%30.03 "Hg
* Reported Jul 13 8:53 AM — Jul 28 8:53 AM, Vancouver, Weather by CustomWeather, © 2015

Note: Actual official high and low records may vary slightly from our data, if they occured in-between our weather recording intervals... More about our weather records

Advertising

Vancouver weather history for previous 24 hours

 ConditionsComfort  
Time TempWeatherWind HumidityBarometerVisibility
8:53 AM
Tue, Jul 28
63 °FSunny.No wind68%30.24 "Hg10 mi
7:53 AM60 °FSunny.3 mph72%30.24 "Hg10 mi
6:53 AM58 °FSunny.No wind81%30.24 "Hg10 mi
5:53 AM55 °FClear.No wind83%30.24 "Hg10 mi
4:53 AM57 °FClear.No wind81%30.24 "Hg10 mi
3:53 AM59 °FClear.5 mph75%30.24 "Hg10 mi
2:53 AM59 °FClear.6 mph75%30.23 "Hg10 mi
1:53 AM59 °FClear.No wind75%30.23 "Hg10 mi
12:53 AM61 °FClear.6 mph67%30.23 "Hg10 mi
11:53 PM
Mon, Jul 27
63 °FClear.8 mph63%30.23 "Hg10 mi
10:53 PM64 °FClear.No wind61%30.23 "Hg10 mi
9:53 PM67 °FClear.8 mph55%30.22 "Hg10 mi
8:53 PM70 °FSunny.7 mph47%30.20 "Hg10 mi
7:53 PM73 °FSunny.9 mph43%30.19 "Hg10 mi
6:53 PM75 °FSunny.12 mph40%30.18 "Hg10 mi
5:53 PM76 °FSunny.13 mph39%30.18 "Hg10 mi
4:53 PM76 °FSunny.10 mph35%30.18 "Hg10 mi
3:53 PM76 °FSunny.9 mph37%30.19 "Hg10 mi
2:53 PM74 °FPassing clouds.6 mph40%30.19 "Hg10 mi
1:53 PM72 °FPassing clouds.8 mph43%30.20 "Hg10 mi
12:53 PM70 °FPartly sunny.5 mph47%30.21 "Hg10 mi
11:53 AM69 °FPassing clouds.7 mph49%30.22 "Hg10 mi
Weather by CustomWeather, © 2015

See weather overviewHow to use our weather pages